Weather History for Eastover, SC

Change the Weather History Date:

Sunday, September 22, 2013

  Actual Average Record
Temperature  
Mean Temperature 72 °F -  
Max Temperature 82 °F 80 °F 92 °F (2010)
Min Temperature 63 °F 61 °F 50 °F (1999)
Cooling Degree Days 8    
Growing Degree Days 22 (Base 50)    
Moisture  
Dew Point 63 °F    
Average Humidity 78    
Maximum Humidity 100    
Minimum Humidity 45    
Precipitation  
Precipitation 0.03 in - - ()
Sea Level Pressure  
Sea Level Pressure 29.78 in    
Wind  
Wind Speed 8 mph (NNW)    
Max Wind Speed 15 mph    
Max Gust Speed 21 mph    
Visibility 10 miles    
Events Rain    
Averages and records for this station are not official NWS values.
T = Trace of Precipitation, MM = Missing Value Source: NWS Daily Summary

Daily Weather History Graph

Daily Weather History Graph

Search for Another Location

Airport:

Trip Planner

Search our weather history database for the weather conditions in past years. The results will help you decide how hot, cold, wet, or windy it might be!

Date:

Astronomy

Sep. 22, 2013 Rise Set
Actual Time 7:11 AM EDT 7:19 PM EDT
Civil Twilight 6:46 AM EDT 7:44 PM EDT
Nautical Twilight 6:17 AM EDT 8:13 PM EDT
Astronomical Twilight 5:47 AM EDT 8:42 PM EDT
Moon 9:20 PM EDT (9/22) 10:19 AM EDT (9/22)
Length of Visible Light 12h 58m
Length of Day
12h 08m
Waning Gibbous, 89% of the Moon is Illuminated
Sep 22
Waning Gibbous
Sep 26
Last Quarter
Oct 4
New
Oct 11
First Quarter
Oct 18
Full

Hourly Weather History & Observations

Time (EDT) Temp. Heat Index Dew Point Humidity Pressure Visibility Wind Dir Wind Speed Gust Speed Precip Events Conditions
12:38 AM 71.6 °F - 69.8 °F 94% 29.72 in 10.0 mi SW 5.8 mph - N/A   Overcast
12:58 AM 71.6 °F - 70.2 °F 95% 29.71 in 10.0 mi SW 9.2 mph - N/A   Overcast
1:18 AM 71.6 °F - 69.8 °F 94% 29.71 in 4.0 mi WSW 10.4 mph - N/A Rain Rain
1:28 AM 71.6 °F - 69.8 °F 94% 29.71 in 9.0 mi SW 8.1 mph - N/A Rain Light Rain
1:48 AM 69.8 °F - 69.8 °F 100% 29.71 in 10.0 mi WSW 9.2 mph - N/A   Overcast
1:58 AM 70.7 °F - 69.8 °F 97% 29.71 in 10.0 mi WSW 10.4 mph - 0.03 in   Overcast
2:08 AM 69.8 °F - 69.8 °F 100% 29.72 in 10.0 mi WNW 12.7 mph 20.7 mph N/A   Overcast
2:38 AM 69.8 °F - 66.2 °F 88% 29.72 in 10.0 mi WNW 9.2 mph - N/A   Overcast
2:58 AM 68.7 °F - 66.7 °F 93% 29.73 in 10.0 mi West 8.1 mph - N/A   Overcast
3:58 AM 68.2 °F - 66.4 °F 94% 29.73 in 10.0 mi West 6.9 mph - N/A   Overcast
4:18 AM 68.0 °F - 66.2 °F 94% 29.73 in 10.0 mi WNW 6.9 mph - N/A   Overcast
4:38 AM 66.2 °F - 64.4 °F 94% 29.73 in 10.0 mi NNW 15.0 mph 19.6 mph N/A   Scattered Clouds
4:58 AM 66.4 °F - 63.0 °F 89% 29.75 in 10.0 mi NNW 9.2 mph - N/A   Clear
5:58 AM 64.4 °F - 62.1 °F 92% 29.75 in 10.0 mi NNW 4.6 mph - N/A   Clear
6:58 AM 64.4 °F - 61.3 °F 90% 29.78 in 10.0 mi Variable 6.9 mph - N/A   Scattered Clouds
7:58 AM 64.9 °F - 62.4 °F 92% 29.80 in 10.0 mi NW 4.6 mph - N/A   Mostly Cloudy
8:58 AM 67.8 °F - 61.5 °F 80% 29.80 in 10.0 mi North 9.2 mph - N/A   Mostly Cloudy
9:58 AM 71.1 °F - 61.2 °F 71% 29.81 in 10.0 mi North 8.1 mph - N/A   Mostly Cloudy
10:58 AM 73.0 °F - 61.3 °F 67% 29.83 in 10.0 mi North 10.4 mph - N/A   Scattered Clouds
11:58 AM 76.5 °F - 60.8 °F 58% 29.82 in 10.0 mi NNE 9.2 mph - N/A   Scattered Clouds
12:58 PM 78.4 °F - 60.3 °F 53% 29.81 in 10.0 mi NNE 10.4 mph 18.4 mph N/A   Scattered Clouds
1:58 PM 80.6 °F 81.6 °F 61.5 °F 52% 29.79 in 10.0 mi North 11.5 mph - N/A   Partly Cloudy
2:58 PM 81.0 °F 81.6 °F 59.9 °F 49% 29.79 in 10.0 mi North 8.1 mph - N/A   Partly Cloudy
3:58 PM 81.5 °F 82.0 °F 59.9 °F 48% 29.78 in 10.0 mi North 9.2 mph - N/A   Partly Cloudy
4:58 PM 81.9 °F 81.9 °F 58.8 °F 45% 29.79 in 10.0 mi NNE 3.5 mph - N/A   Clear
5:58 PM 80.4 °F 80.9 °F 58.3 °F 47% 29.79 in 10.0 mi North 6.9 mph - N/A   Clear
6:58 PM 77.2 °F - 59.2 °F 54% 29.81 in 10.0 mi Variable 2.3 mph - N/A   Clear
7:58 PM 73.4 °F - 58.1 °F 59% 29.83 in 10.0 mi NNE 3.5 mph - N/A   Clear
8:58 PM 66.0 °F - 60.4 °F 82% 29.86 in 10.0 mi NNE 2.3 mph - N/A   Clear
9:58 PM 65.7 °F - 58.8 °F 79% 29.88 in 10.0 mi NNE 4.6 mph - N/A   Clear
10:58 PM 67.8 °F - 57.6 °F 70% 29.90 in 10.0 mi NNE 3.5 mph - N/A   Clear
11:58 PM 63.3 °F - 58.5 °F 84% 29.91 in 10.0 mi NE 2.3 mph - N/A   Clear